Regional Weather Roundup
Issued by NWS

Home | Current Version | Previous Version | Graphics & Text | Print | Product List | Glossary On
Versions: 1 2 3 4 5 6 7 8 9 10 11 12 13 14 15 16 17 18 19 20 21 22 23 24 25 26 27 28 29 30 31 32 33 34 35 36 37 38 39 40 41 42 43 44 45 46 47 48 49 50
000
ASUS43 KIND 040459
RWRIN

WEATHER ROUNDUP FOR INDIANA
NATIONAL WEATHER SERVICE INDIANAPOLIS IN
100 AM EDT FRI SEP 04 2015

NOTE: "FAIR" INDICATES FEW OR NO CLOUDS BELOW 12,000 FEET WITH NO
SIGNIFICANT WEATHER AND/OR OBSTRUCTIONS TO VISIBILITY.

* - STATION DOES NOT REPORT WEATHER SUCH AS PRECIPITATION OR FOG.

+ - STATION NOT QUALITY CONTROLLED BY THE NATIONAL WEATHER SERVICE.
    USE DATA WITH CAUTION...ESPECIALLY DEWPOINT AND RELATIVE
    HUMIDITY OBSERVATIONS.

INZ001>003-010>013-019-020-040600-
NORTHWEST INDIANA

CITY           SKY/WX    TMP DP  RH WIND       PRES   REMARKS
RENSSELAER +   CLEAR     73  72  94 NW6       29.95R

$$

LMZ046-743>745-040600-
SOUTHERN LAKE MICHIGAN

STATION/POSITION TIME  TEMP    WIND        PRES    WAVE
                       AIR SEA DIR/SP/G            HT
                 (UTC) (F)     (DEG/KT/KT) (MB)    (FT)
BURNS HARBOR     0400   72      30/ 11/ 13 1014.9R
MICHIGAN CITY    0400   71      10/ 12/ 13   N/A
5NW MICH CITY    0400   72 73   30/ 10/ 12   N/A     2

$$

INZ004-005-014>016-021>024-040600-
NORTH CENTRAL INDIANA

CITY           SKY/WX    TMP DP  RH WIND       PRES   REMARKS
GOSHEN         CLEAR     71  68  90 W5        29.94R
SOUTH BEND     PTCLDY    70  67  90 NW7       29.96R

$$

INZ006>009-017-018-025>027-040600-
NORTHEAST INDIANA

CITY           SKY/WX    TMP DP  RH WIND       PRES   REMARKS
ANGOLA *+      CLEAR     73  70  88 CALM      29.94R
FORT WAYNE     PTCLDY    72  68  87 SW3       29.94F

$$

INZ028-029-035-036-043>045-051>053-040600-
WEST CENTRAL INDIANA

CITY           SKY/WX    TMP DP  RH WIND       PRES   REMARKS
CRAWFORDSVL +  CLEAR     68  65  88 CALM      29.96S
GREENCASTLE +  CLEAR     70  64  83 CALM      29.98S
LAFAYETTE      CLEAR     72  69  90 W3        29.94S
TERRE HAUTE    CLEAR     70  66  87 CALM      29.96S

$$

INZ030>032-037>040-046>048-054>057-064-065-040600-
CENTRAL INDIANA

CITY           SKY/WX    TMP DP  RH WIND       PRES   REMARKS
FRANKFORT +    CLEAR    N/A N/A N/A CALM      29.98S
GREENWOOD *+   PTCLDY    72  66  83 SW3       29.98S
INDIANAPOLIS   CLEAR     74  67  78 SW5       29.97R
-EAGLE CREEK   CLEAR     73  67  81 CALM      29.96S
KOKOMO *+      CLEAR     72  55  56 SW8       29.95F
MT COMFORT *+  CLEAR     72  70  94 CALM      29.98S
SHELBYVILLE    CLEAR     71  66  84 CALM      29.97S
ZIONSVILLE +   CLEAR     68  64  88 CALM      29.98R

$$

INZ033-034-041-042-049-050-058-059-040600-
EAST CENTRAL INDIANA

CITY           SKY/WX    TMP DP  RH WIND       PRES   REMARKS
MUNCIE         CLEAR     74  66  76 SW7       29.96F

$$

INZ060-061-067>069-081>083-085>088-040600-
SOUTHWEST INDIANA

CITY           SKY/WX    TMP DP  RH WIND       PRES   REMARKS
EVANSVILLE     CLEAR     74  70  87 CALM      29.97S
HUNTINGBURG *+ CLEAR     70  66  88 CALM      29.98R

$$

INZ062-063-066-070>080-084-089>092-040600-
SOUTH CENTRAL AND SOUTHEAST INDIANA

CITY           SKY/WX    TMP DP  RH WIND       PRES   REMARKS
BLOOMINGTON    CLEAR     69  67  93 CALM      29.98S
MADISON *+     CLEAR     68  66  94 CALM      30.01R
SEYMOUR +      CLEAR     70  68  94 CALM      29.98R

$$



USA.gov is the U.S. government's official web portal to all federal, state and local government web resources and services.